Location: Newark
(47.4417°N, 1.1394°W)
Time: 07:26:02
(UTC+00:00)

Envisat - Pass Details

Date: 22 November 2019
Orbit: 764 x 766 km, 98.1° (Epoch: 15 December)

Event Time Altitude Azimuth Distance (km) Brightness Sun altitude
Rises 05:47:35 0° 27° (NNE) 3,242 6.4 -15.1°
Reaches altitude 10° 05:50:33 10° 45° (NE) 2,310 5.9 -14.6°
Maximum altitude 05:54:10 19° 90° (E) 1,747 5.9 -14.1°
Drops below altitude 10° 05:57:46 10° 136° (SE) 2,297 6.4 -13.5°
Sets 06:00:42 0° 153° (SSE) 3,218 6.9 -13.0°
